User: anonymous   Login
Location: Unspecified
(0.0000°N, 0.0000°E)
Time: 22:51:33
(UTC+00:00)
Language:

ITAMSAT 1 - Orbit

View from above orbital plane
View from above orbital plane
View from above satellite
View from above satellite

Ground track
Ground track

The orbit data is extracted from the following two-line orbital elements,

1 22826U 93061D   18018.88946502 -.00000007  00000-0  14902-4 0  9997
2 22826  98.8376 352.5137 0009839  55.7335 304.4777 14.30350198268413
Epoch (UTC): 18 January 2018 21:20:49
Eccentricity: 0.0009839
inclination: 98.8376°
perigee height: 783 km
apogee height: 797 km
right ascension of ascending node: 352.5137°
argument of perigee: 55.7335°
revolutions per day: 14.30350198
mean anomaly at epoch: 304.4777°
orbit number at epoch: 26841

The dashed part of the orbit path shows where the satellite is in the earth's shadow,  

DLR